User: anonymous   Login
Location: Bailen
(14.1842°N, 120.7958°E)
Time: 16:27:13
(UTC+00:00)
Language:

ATLAS 5 CENTAUR R/B - Orbit

View from above orbital plane
View from above orbital plane
View from above satellite
View from above satellite

Ground track
Ground track

The orbit is defined by the following mean orbital elements,

1 31702U          26075.95892273 +.00000000 +00000-0 +58828-3 0 00005
2 31702  63.3112 156.3394 0499789  42.3558 321.4994 14.51801765    05
Epoch (UTC): 16 March 2026 23:00:50
Eccentricity: 0.0499789
inclination: 63.3112°
perigee height: 365 km
apogee height: 1075 km
right ascension of ascending node: 156.3394°
argument of perigee: 42.3558°
revolutions per day: 14.51801765
mean anomaly at epoch: 321.4994°

The dashed part of the orbit path shows where the satellite is in the earth's shadow,  

DLR